Location: Bastogne Gables
(35.1554°N, 78.9900°W)
Time: 01:43:12
(UTC+00:00)

CZ-4 R/B - Visible Passes

Search period start: 27 February 2021 00:00
Search period end: 09 March 2021 00:00
Orbit: 580 x 589 km, 97.7° (Epoch: 26 February)

Date Brightness Start Highest point End Pass type
(mag) Time Alt. Az. Time Alt. Az. Time Alt. Az.
27 Feb 8.1 11:22:34 10° ENE 11:24:35 13° E 11:26:35 10° ESE visible
27 Feb 4.4 23:42:08 10° SSE 23:46:18 86° ENE 23:50:28 10° N visible
28 Feb 4.6 23:48:27 10° S 23:52:35 79° WSW 23:56:46 10° NNW visible
01 Mar 4.9 23:54:47 10° S 23:58:54 65° WSW 00:03:02 10° NNW visible
03 Mar 5.3 00:01:10 10° S 00:05:14 54° W 00:09:18 10° NNW visible
04 Mar 5.7 00:07:35 10° S 00:11:33 44° W 00:15:32 10° NNW visible
05 Mar 6.1 00:14:02 10° SSW 00:17:53 37° W 00:21:45 10° NNW visible
06 Mar 6.5 00:20:32 10° SSW 00:24:12 31° W 00:27:55 10° NW visible
07 Mar 6.8 00:27:05 10° SSW 00:30:33 26° W 00:34:04 10° NW visible
08 Mar 7.1 00:33:40 10° SSW 00:36:54 22° W 00:40:10 10° NW visible
